TimeEDT,TemperatureF,Dew PointF,Humidity,Sea Level PressureIn,VisibilityMPH,Wind Direction,Wind SpeedMPH,Gust SpeedMPH,PrecipitationIn,Events,Conditions,WindDirDegrees,DateUTC
12:51 AM,55.0,46.9,74,29.84,10.0,WSW,6.9,-,N/A,,Clear,240,2012-10-01 04:51:00
1:51 AM,53.1,48.0,83,29.85,10.0,SW,8.1,-,N/A,,Clear,230,2012-10-01 05:51:00
2:51 AM,53.1,46.9,80,29.84,10.0,West,8.1,-,N/A,,Clear,270,2012-10-01 06:51:00
3:51 AM,51.1,46.0,83,29.84,10.0,SSW,5.8,-,N/A,,Clear,210,2012-10-01 07:51:00
4:51 AM,51.1,48.0,89,29.85,10.0,WSW,8.1,-,N/A,,Clear,250,2012-10-01 08:51:00
5:51 AM,51.1,48.0,89,29.85,10.0,WSW,11.5,-,N/A,,Clear,250,2012-10-01 09:51:00
6:51 AM,51.1,46.9,86,29.86,10.0,WSW,11.5,-,N/A,,Partly Cloudy,250,2012-10-01 10:51:00
7:51 AM,53.1,46.9,80,29.87,10.0,WSW,10.4,-,N/A,,Partly Cloudy,250,2012-10-01 11:51:00
8:51 AM,57.0,46.9,69,29.88,10.0,WSW,12.7,-,N/A,,Partly Cloudy,240,2012-10-01 12:51:00
9:51 AM,62.1,46.9,58,29.90,10.0,West,12.7,-,N/A,,Scattered Clouds,260,2012-10-01 13:51:00
10:51 AM,64.9,46.9,52,29.89,10.0,West,13.8,-,N/A,,Scattered Clouds,260,2012-10-01 14:51:00
11:51 AM,68.0,46.9,47,29.89,10.0,WNW,9.2,21.9,N/A,,Scattered Clouds,290,2012-10-01 15:51:00
12:51 PM,69.1,46.9,45,29.88,10.0,West,13.8,19.6,N/A,,Scattered Clouds,270,2012-10-01 16:51:00
1:51 PM,72.0,48.0,43,29.87,10.0,West,16.1,21.9,N/A,,Scattered Clouds,270,2012-10-01 17:51:00
2:51 PM,73.0,48.0,41,29.87,10.0,WNW,10.4,19.6,N/A,,Scattered Clouds,290,2012-10-01 18:51:00
3:51 PM,72.0,48.0,43,29.87,10.0,WSW,11.5,-,N/A,,Scattered Clouds,240,2012-10-01 19:51:00
4:51 PM,71.1,46.9,42,29.89,10.0,WSW,12.7,-,N/A,,Scattered Clouds,250,2012-10-01 20:51:00
5:51 PM,69.8,46.4,43,29.90,10.0,WSW,12.7,-,N/A,,Scattered Clouds,250,2012-10-01 21:51:00
6:51 PM,68.0,48.0,49,29.92,10.0,WSW,9.2,-,N/A,,Scattered Clouds,240,2012-10-01 22:51:00
7:51 PM,68.0,48.9,50,29.94,10.0,SW,9.2,-,N/A,,Mostly Cloudy,220,2012-10-01 23:51:00
8:51 PM,66.0,48.9,54,29.96,10.0,WSW,6.9,-,N/A,,Mostly Cloudy,240,2012-10-02 00:51:00
9:51 PM,64.9,48.9,56,29.97,10.0,WSW,4.6,-,N/A,,Mostly Cloudy,250,2012-10-02 01:51:00
10:51 PM,64.0,48.9,58,29.96,10.0,Calm,Calm,-,N/A,,Overcast,0,2012-10-02 02:51:00
11:51 PM,64.0,50.0,60,29.96,10.0,Calm,Calm,-,N/A,,Overcast,0,2012-10-02 03:51:00